Spencer, IA

6:50 PM CST on January 17, 2017 (GMT -0600)
Spencer Municipal

Weather History for KSPW - March, 2014

Change the Weather History Date:

Thursday, March 20, 2014

  Actual Average Record
Temperature  
Mean Temperature 39 °F -  
Max Temperature 53 °F 44 °F 68 °F (2015)
Min Temperature 26 °F 25 °F 7 °F (1974)
Degree Days  
Heating Degree Days 26    
Moisture  
Dew Point 29 °F    
Average Humidity 71    
Maximum Humidity 96    
Minimum Humidity 41    
Precipitation  
Precipitation 0.00 in - - ()
Sea Level Pressure  
Sea Level Pressure 29.98 in    
Wind  
Wind Speed 8 mph (SE)    
Max Wind Speed 18 mph    
Max Gust Speed 22 mph    
Visibility 10 miles    
Events      
Averages and records for this station are not official NWS values.
T = Trace of Precipitation, MM = Missing Value Source: NWS Daily Summary

Daily Weather History Graph

Daily Weather History Graph

Search for Another Location

Airport or City:

Trip Planner

Search our weather history database for the weather conditions in past years. The results will help you decide how hot, cold, wet, or windy it might be!

Date:

Astronomy

Mar. 20, 2014 Rise Set
Actual Time 7:23 AM CDT 7:33 PM CDT
Civil Twilight 6:55 AM CDT 8:01 PM CDT
Nautical Twilight 6:22 AM CDT 8:34 PM CDT
Astronomical Twilight 5:48 AM CDT 9:09 PM CDT
Moon No Moon Rise 9:24 AM CDT (3/20)
Length of Visible Light 13h 05m
Length of Day
12h 09m
Waning Gibbous, 84% of the Moon is Illuminated
Mar 20
Waning Gibbous
Mar 23
Last Quarter
Mar 30
New
Apr 7
First Quarter
Apr 15
Full

Hourly Weather History & Observations

Time (CDT) Temp. Windchill Dew Point Humidity Pressure Visibility Wind Dir Wind Speed Gust Speed Precip Events Conditions
12:53 AM 30.9 °F 22.8 °F 28.9 °F 92% 30.05 in 10.0 mi West 9.2 mph - N/A   Clear
1:53 AM 30.0 °F 24.1 °F 28.0 °F 92% 30.04 in 10.0 mi North 5.8 mph - N/A   Clear
2:53 AM 26.1 °F 18.4 °F 24.1 °F 92% 30.05 in 10.0 mi West 6.9 mph - N/A   Clear
3:53 AM 27.0 °F 21.6 °F 25.0 °F 92% 30.05 in 10.0 mi West 4.6 mph - N/A   Clear
4:53 AM 27.0 °F - 25.0 °F 92% 30.04 in 10.0 mi Calm Calm - N/A   Clear
5:53 AM 28.0 °F - 25.0 °F 88% 30.04 in 6.0 mi Calm Calm - N/A   Clear
6:53 AM 26.1 °F 20.5 °F 24.1 °F 92% 30.04 in 9.0 mi SSW 4.6 mph - N/A   Clear
7:53 AM 26.1 °F - 25.0 °F 96% 30.05 in 10.0 mi Calm Calm - N/A   Overcast
8:53 AM 30.0 °F - 28.9 °F 96% 30.04 in 8.0 mi Calm Calm - N/A   Mostly Cloudy
9:53 AM 35.1 °F 31.0 °F 32.0 °F 89% 30.03 in 8.0 mi ESE 4.6 mph - N/A   Scattered Clouds
10:53 AM 42.1 °F 36.6 °F 33.1 °F 70% 30.02 in - SE 9.2 mph - N/A   Partly Cloudy
11:53 AM 43.0 °F 37.2 °F 33.1 °F 68% 30.01 in 10.0 mi SSE 10.4 mph - N/A   Clear
12:53 PM 46.0 °F 40.6 °F 30.9 °F 56% 29.99 in 10.0 mi SSE 11.5 mph - N/A   Clear
1:53 PM 48.0 °F - 30.0 °F 50% 29.96 in 10.0 mi ESE 10.4 mph - N/A   Clear
2:53 PM 51.1 °F - 30.9 °F 46% 29.94 in 10.0 mi ESE 10.4 mph - N/A   Clear
3:53 PM 52.0 °F - 28.9 °F 41% 29.92 in 10.0 mi SE 9.2 mph 21.9 mph N/A   Clear
4:53 PM 52.0 °F - 28.9 °F 41% 29.91 in 10.0 mi SSE 12.7 mph - N/A   Clear
5:53 PM 52.0 °F - 28.9 °F 41% 29.91 in 10.0 mi SE 13.8 mph - N/A   Clear
6:53 PM 48.9 °F - 30.0 °F 48% 29.91 in 10.0 mi SE 13.8 mph - N/A   Clear
7:53 PM 45.0 °F 38.9 °F 30.9 °F 58% 29.90 in 10.0 mi SE 12.7 mph - N/A   Clear
8:53 PM 42.1 °F 35.2 °F 30.9 °F 65% 29.91 in 10.0 mi SE 12.7 mph - N/A   Clear
9:53 PM 39.9 °F 32.5 °F 30.9 °F 70% 29.90 in 10.0 mi SE 12.7 mph - N/A   Clear
10:53 PM 39.0 °F 30.6 °F 30.0 °F 70% 29.88 in 10.0 mi SE 15.0 mph - N/A   Clear
11:53 PM 37.9 °F 28.2 °F 28.9 °F 70% 29.85 in 10.0 mi SE 18.4 mph - N/A   Clear